Starlink 31883

operational
NORAD ID: 60020 Int'l Des: 2024-111 Owner: SPXS Country: US Constellation: starlink
LEOCIRCULAR

关于 Starlink 31883

正在加载描述...

实时位置

正在加载3D地球...

即将过境

高度历史

Altitude vs Time

uPlot chart will show altitude changes over time

两行轨道根数

1 60020U 24111E 25353.51055498 .00000089 00000-0 15132-4 0 9995
2 60020 53.1607 88.3423 0001022 94.5501 265.5616 15.30188631 86707
Epoch: Dec 19, 2025 • Age: 20 hours

当前状态

高度 475.4 km
速度 7.63 km/s
星下点 8.99°N, 128.24°W
发射日期 Jun 8, 2024
运行时间 1.5 years
类型 internet

技术详情

分类 Payload
质量 730.00 kg
干质量 700.00 kg
总质量 730.00 kg
长度 0.30 m
直径 4.10 m
跨度 29.00 m
形状 Box + pan
制造商 SPXS
平台类型 Starlink V2M
阶段状态 In Orbit
所有者/国家 SPXS/US

大型星座

Loading constellations...